Eureka Airport


Codes: CYEU/YEU
Name: Eureka Airport
City: Eureka
Country: Canada
Elevation: 256 ft.
Wikipedia:

Photos at Eureka Airport


   Photos courtesy of SpottingLog. You can add your own sightings and photos by signing up for a free trial today.



No photos found.

Weather at Eureka Airport


Time (UTC)DescriptionTempratureWindCloud coverageVisibilityPressureHumidity
26-Jun-2024 00:00Overcast Clouds6°C9 mph, NW86%10000m1008hPa68%
26-Jun-2024 03:00Broken Clouds5°C9 mph, NW54%10000m1009hPa70%
26-Jun-2024 06:00Scattered Clouds4°C7 mph, NW26%10000m1010hPa76%
26-Jun-2024 09:00Broken Clouds4°C7 mph, NW65%10000m1010hPa78%
26-Jun-2024 12:00Broken Clouds5°C7 mph, NW77%10000m1010hPa73%
26-Jun-2024 15:00Broken Clouds6°C7 mph, NW60%10000m1010hPa68%
26-Jun-2024 18:00Broken Clouds7°C7 mph, NW79%10000m1010hPa64%
26-Jun-2024 21:00Overcast Clouds7°C7 mph, NW100%10000m1010hPa63%
27-Jun-2024 00:00Overcast Clouds7°C7 mph, NW100%10000m1010hPa63%
27-Jun-2024 03:00Overcast Clouds7°C7 mph, NW97%10000m1009hPa65%
27-Jun-2024 06:00Broken Clouds6°C7 mph, NW78%10000m1009hPa68%
27-Jun-2024 09:00Scattered Clouds6°C7 mph, N34%10000m1008hPa64%
27-Jun-2024 12:00Scattered Clouds6°C7 mph, NW41%10000m1007hPa65%
27-Jun-2024 15:00Broken Clouds4°C9 mph, NW79%10000m1007hPa76%
27-Jun-2024 18:00Overcast Clouds2°C9 mph, NW87%183m1007hPa89%
27-Jun-2024 21:00Light Snow1°C11 mph, NW100%102m1007hPa95%
28-Jun-2024 00:00Snow1°C9 mph, NW100%139m1006hPa96%
28-Jun-2024 03:00Snow0°C9 mph, NW100%321m1006hPa96%
28-Jun-2024 06:00Light Snow0°C7 mph, NW100%531m1005hPa94%
28-Jun-2024 09:00Light Snow0°C7 mph, NW100%2234m1005hPa92%
28-Jun-2024 12:00Light Snow1°C4 mph, NW100%2402m1004hPa90%
28-Jun-2024 15:00Light Snow1°C2 mph, SW100%2941m1004hPa93%
28-Jun-2024 18:00Light Snow3°C4 mph, S99%10000m1004hPa81%
28-Jun-2024 21:00Broken Clouds5°C4 mph, S84%10000m1004hPa65%
29-Jun-2024 00:00Overcast Clouds4°C2 mph, E88%10000m1003hPa68%
29-Jun-2024 03:00Overcast Clouds3°C4 mph, NE94%10000m1003hPa77%
29-Jun-2024 06:00Broken Clouds3°C4 mph, NE74%10000m1003hPa77%
29-Jun-2024 09:00Few Clouds3°C4 mph, N11%10000m1002hPa76%
29-Jun-2024 12:00Few Clouds4°C4 mph, N13%10000m1001hPa72%
29-Jun-2024 15:00Few Clouds4°C4 mph, N16%10000m1000hPa66%
29-Jun-2024 18:00Few Clouds5°C7 mph, N17%10000m999hPa64%
29-Jun-2024 21:00Few Clouds5°C9 mph, NW22%10000m998hPa63%
30-Jun-2024 00:00Few Clouds4°C9 mph, NW24%10000m998hPa66%
30-Jun-2024 03:00Scattered Clouds3°C9 mph, NW31%10000m998hPa74%
30-Jun-2024 06:00Scattered Clouds2°C9 mph, NW35%10000m998hPa80%
30-Jun-2024 09:00Broken Clouds2°C9 mph, NW73%10000m999hPa81%
30-Jun-2024 12:00Broken Clouds2°C7 mph, NW84%10000m999hPa80%
30-Jun-2024 15:00Overcast Clouds3°C7 mph, NW89%10000m999hPa74%
30-Jun-2024 18:00Broken Clouds4°C7 mph, NW79%10000m1000hPa67%
30-Jun-2024 21:00Scattered Clouds6°C4 mph, NW44%10000m1001hPa61%